Preview of NWS' New Version of Forecast
This preview is not operational and should not be used for support decisions.

Regional Weather Roundup (RWR)

Issued by National Weather Service (NWS)

                            
000
ASUS46 KPQR 200210
RWROR 

OREGON REGIONAL WEATHER ROUNDUP
NATIONAL WEATHER SERVICE PORTLAND OR
700 PM PDT MON AUG 19 2019

NOTE: "FAIR" INDICATES FEW OR NO CLOUDS BELOW 12,000 FEET WITH
NO SIGNIFICANT WEATHER AND/OR OBSTRUCTIONS TO VISIBILITY.

ORZ001>013-200300-
NORTHWEST OREGON

  
CITY           SKY/WX    TMP DP  RH WIND       PRES   REMARKS
ASTORIA        SUNNY     66  54  65 NW13      29.97F                  
TILLAMOOK      SUNNY     68  52  56 W14       29.98F                  
NEWPORT        SUNNY     64  55  72 N12G18    30.00F                  
FLORENCE       FAIR      63  55  77 N13G18    29.95F                  
PORTLAND       MOSUNNY   79  54  41 NW12      29.91F                  
VANCOUVER WA   SUNNY     78  54  43 NW8       29.91F                  
SCAPPOOSE      SUNNY     76  56  49 NW12      29.92F                  
HILLSBORO      SUNNY     76  56  49 NE8       29.92F                  
AURORA         SUNNY     80  53  39 E8        29.92F                  
MCMINNVILLE    SUNNY     81  53  37 N6        29.90F                  
SALEM          SUNNY     81  50  33 CALM      29.90F                  
CORVALLIS      SUNNY     81  56  42 N8        29.91F                  
EUGENE         MOSUNNY   82  55  39 NE6       29.91F                  
CRESWELL       SUNNY     79  55  44 VRB3      29.90F                  
$$

ORZ021-028-200300-
SOUTHWEST OREGON

  
CITY           SKY/WX    TMP DP  RH WIND       PRES   REMARKS
NORTH BEND     SUNNY     65  58  78 N14       29.98F                  
BROOKINGS      SUNNY     61  54  77 S3        29.98F                  
ROSEBURG       SUNNY     84  54  35 N9        29.90S                  
SEXTON SUMMIT  MOSUNNY   71  53  52 VRB3      30.03S                  
GRANTS PASS    FAIR      88  54  31 N9        29.90S                  
MEDFORD        MOSUNNY   89  49  25 W9        29.85F                  
$$

ORZ014>016-041-200300-
COLUMBIA GORGE

  
CITY           SKY/WX    TMP DP  RH WIND       PRES   REMARKS
TROUTDALE      SUNNY     79  55  43 VRB5      29.90F                  
HOOD RIVER     SUNNY     79  48  34 CALM      29.87S                  
THE DALLES     SUNNY     83  52  34 NW12G20   29.83S                  
$$

ORZ029>031-041-044-049-050-061>064-502-503-505>511-200300-
EASTERN OREGON

  
CITY           SKY/WX    TMP DP  RH WIND       PRES   REMARKS
MADRAS         SUNNY     84  43  23 N8        29.92F                  
REDMOND        SUNNY     86  38  18 N12       29.93F                  
BEND           SUNNY     84  37  18 N9        29.95S                  
PRINEVILLE     SUNNY     84  36  17 NW10      29.94S                  
KLAMATH FALLS  MOSUNNY   85  44  23 CALM      29.99S                  
LAKEVIEW       PTCLDY    77  39  25 S6        30.04F                  
HERMISTON      CLEAR     91  45  20 N3        29.82F                  
PENDLETON      CLEAR     86  44  23 NW6       29.87F                  
JOHN DAY       CLEAR     86  37  17 N8        29.96S                  
MEACHAM        CLEAR     76  43  30 CALM      30.01S                  
LA GRANDE      CLEAR     83  47  28 N7        29.94R                  
BAKER CITY     CLEAR     81  48  31 NW9       29.95S                  
BURNS          PTCLDY    84  42  22 E5        29.97S                  
ROME             N/A     93  21   7 NW8       29.92S                  
ONTARIO        PTCLDY    89  57  33 SE3       29.82F                  
$$